Voltar ao catálogo

GOES 7 AKM

AtivoMEO
NORAD 28520·ROCKET BODY·🇺🇸 United States

Lançado Feb 26, 1987 de Cape Canaveral Space Force Station

Loading…

Próximas Passagens (próximas 24 horas)

TLE

AtualizadoSource: Space-Track

Época: Sep 14, 2026, 12:47 UTC

1 28520U 87022F   26257.53268715 -.00000310  00000-0  00000+0 0  9999
2 28520  10.0880 318.2881 1058577  92.8873 300.3755  0.98771271 46866

Acompanhe GOES 7 AKM em tempo real com AllMySat

Download on the App Store